Volver al catálogo

PSLV DEB

LostSSO
NORAD 35344·DEBRIS·🇮🇳 India

Lanzado Oct 22, 2001 desde Satish Dhawan Space Centre

Loading…

Próximos Pases (próximas 24 horas)

TLE

ObsoletoSource: Space-Track

Época: Jun 12, 2023, 22:12 UTC

1 35344U 01049QC  23163.92509201  .00018323  00000-0  28529-2 0  9991
2 35344  97.8420 195.1018 0048274 219.1815 246.1525 14.72220612   628

Sigue PSLV DEB en tiempo real con AllMySat

Download on the App Store